Weslaco, TX

6:28 AM CDT on September 20, 2017 (GMT -0500)
Weslaco

Weather History for KT65 - February, 2013

Change the Weather History Date:

Saturday, February 9, 2013

  Actual Average (KMFE) Record (KMFE)
Temperature  
Mean Temperature 70 °F -  
Max Temperature 84 °F 71 °F 98 °F (1962)
Min Temperature 57 °F 52 °F 29 °F (1973)
Cooling Degree Days 6    
Growing Degree Days 20 (Base 50)    
Moisture  
Dew Point 64 °F    
Average Humidity 76    
Maximum Humidity 92    
Minimum Humidity 50    
Precipitation  
Precipitation 0.00 in - - ()
Sea Level Pressure  
Sea Level Pressure 29.91 in    
Wind  
Wind Speed 8 mph (SE)    
Max Wind Speed 23 mph    
Max Gust Speed 31 mph    
Visibility 9 miles    
Events      
Averages and records for this station are not official NWS values.
T = Trace of Precipitation, MM = Missing Value Source: NWS Daily Summary

Daily Weather History Graph

Daily Weather History Graph

Search for Another Location

Airport or City:

Trip Planner

Search our weather history database for the weather conditions in past years. The results will help you decide how hot, cold, wet, or windy it might be!

Date:

Astronomy

Feb. 09, 2013 Rise Set
Actual Time 7:11 AM CST 6:21 PM CST
Civil Twilight 6:47 AM CST 6:44 PM CST
Nautical Twilight 6:20 AM CST 7:12 PM CST
Astronomical Twilight 5:53 AM CST 7:39 PM CST
Moon 6:25 AM CST (2/9) 6:01 PM CST (2/9)
Length of Visible Light 11h 57m
Length of Day
11h 09m
Waning Crescent, 0% of the Moon is Illuminated
Feb 9
Waning Crescent
Feb 10
New
Feb 17
First Quarter
Feb 25
Full
Mar 4
Last Quarter

Hourly Weather History & Observations

Time (CST) Temp. Heat Index Dew Point Humidity Pressure Visibility Wind Dir Wind Speed Gust Speed Precip Events Conditions
12:15 AM 58.8 °F - 55.9 °F 90% 30.05 in 10.0 mi Calm Calm - N/A   Clear
12:35 AM 57.9 °F - 55.0 °F 90% 30.04 in 10.0 mi Calm Calm - N/A   Clear
12:55 AM 57.7 °F - 55.2 °F 91% 30.04 in 7.0 mi Calm Calm - N/A   Clear
1:15 AM 57.9 °F - 55.6 °F 92% 30.04 in 7.0 mi Calm Calm - N/A   Clear
1:35 AM 58.1 °F - 55.6 °F 91% 30.04 in 10.0 mi Calm Calm - N/A   Mostly Cloudy
1:55 AM 58.3 °F - 55.6 °F 91% 30.04 in 10.0 mi Calm Calm - N/A   Overcast
2:15 AM 59.0 °F - 56.3 °F 91% 30.03 in 7.0 mi Calm Calm - N/A   Overcast
2:35 AM 59.5 °F - 56.7 °F 90% 30.02 in 10.0 mi Calm Calm - N/A   Overcast
2:55 AM 60.1 °F - 56.8 °F 89% 30.01 in 7.0 mi NE 3.5 mph - N/A   Overcast
3:15 AM 60.3 °F - 57.2 °F 90% 30.00 in 10.0 mi ENE 3.5 mph - N/A   Overcast
3:35 AM 61.2 °F - 57.7 °F 88% 29.99 in 7.0 mi ENE 3.5 mph - N/A   Overcast
3:55 AM 61.9 °F - 58.1 °F 87% 29.99 in 7.0 mi East 3.5 mph - N/A   Overcast
4:15 AM 62.6 °F - 58.5 °F 86% 29.98 in 10.0 mi ENE 4.6 mph - N/A   Overcast
4:35 AM 63.0 °F - 58.8 °F 86% 29.98 in 10.0 mi Calm Calm - N/A   Overcast
4:55 AM 63.7 °F - 59.4 °F 86% 29.98 in 10.0 mi East 4.6 mph - N/A   Overcast
5:15 AM 64.2 °F - 59.9 °F 86% 29.97 in 10.0 mi East 4.6 mph - N/A   Overcast
5:35 AM 64.4 °F - 60.3 °F 86% 29.97 in 10.0 mi East 5.8 mph - N/A   Overcast
5:55 AM 64.9 °F - 60.8 °F 86% 29.97 in 10.0 mi ESE 4.6 mph - N/A   Overcast
6:15 AM 65.3 °F - 61.3 °F 87% 29.97 in 10.0 mi East 5.8 mph - N/A   Mostly Cloudy
6:35 AM 65.5 °F - 62.1 °F 89% 29.97 in 7.0 mi East 8.1 mph - N/A   Scattered Clouds
6:55 AM 66.4 °F - 63.0 °F 89% 29.97 in 7.0 mi ESE 9.2 mph - N/A   Mostly Cloudy
7:15 AM 66.7 °F - 63.3 °F 89% 29.97 in 7.0 mi East 8.1 mph - N/A   Mostly Cloudy
7:35 AM 67.3 °F - 63.9 °F 89% 29.97 in 5.0 mi ESE 6.9 mph - N/A   Overcast
7:55 AM 68.7 °F - 64.9 °F 88% 29.97 in 5.0 mi ESE 8.1 mph - N/A   Mostly Cloudy
8:15 AM 69.8 °F - 65.3 °F 86% 29.98 in 5.0 mi ESE 8.1 mph - N/A   Haze
8:35 AM 70.7 °F - 65.7 °F 84% 29.98 in 7.0 mi SE 9.2 mph - N/A   Overcast
9:15 AM 73.0 °F - 66.6 °F 80% 29.98 in 7.0 mi ESE 11.5 mph 18.4 mph N/A   Overcast
9:55 AM 76.1 °F - 67.1 °F 74% 29.99 in 10.0 mi SSE 17.3 mph 21.9 mph N/A   Overcast
10:15 AM 76.5 °F - 66.9 °F 72% 29.98 in 10.0 mi SE 11.5 mph 21.9 mph N/A   Overcast
10:35 AM 77.7 °F - 67.1 °F 70% 29.98 in 10.0 mi SE 16.1 mph 21.9 mph N/A   Overcast
10:55 AM 77.7 °F - 67.1 °F 70% 29.98 in 10.0 mi SSE 15.0 mph 21.9 mph N/A   Overcast
11:15 AM 78.3 °F - 67.1 °F 68% 29.97 in 7.0 mi SE 15.0 mph 21.9 mph N/A   Mostly Cloudy
11:35 AM 78.3 °F - 67.3 °F 69% 29.96 in 10.0 mi SSE 16.1 mph 23.0 mph N/A   Overcast
11:55 AM 78.8 °F - 67.6 °F 68% 29.95 in 7.0 mi SSE 15.0 mph 19.6 mph N/A   Overcast
12:15 PM 79.5 °F - 67.1 °F 66% 29.94 in 7.0 mi SE 15.0 mph 25.3 mph N/A   Overcast
12:35 PM 81.1 °F 83.5 °F 67.1 °F 62% 29.93 in 7.0 mi SE 17.3 mph 24.2 mph N/A   Overcast
12:55 PM 81.3 °F 83.6 °F 66.6 °F 61% 29.91 in 7.0 mi SSE 15.0 mph 24.2 mph N/A   Overcast
1:15 PM 81.7 °F 84.0 °F 66.4 °F 60% 29.90 in 7.0 mi SE 16.1 mph 23.0 mph N/A   Overcast
1:35 PM 82.8 °F 84.3 °F 64.8 °F 54% 29.88 in 10.0 mi SSE 16.1 mph 25.3 mph N/A   Mostly Cloudy
1:55 PM 83.3 °F 85.1 °F 65.1 °F 54% 29.86 in 7.0 mi SE 20.7 mph 28.8 mph N/A   Overcast
2:15 PM 84.6 °F 85.9 °F 64.0 °F 50% 29.85 in 7.0 mi SSE 21.9 mph 29.9 mph N/A   Overcast
2:35 PM 83.8 °F 84.9 °F 63.5 °F 50% 29.84 in 7.0 mi SSE 16.1 mph 29.9 mph N/A   Mostly Cloudy
2:55 PM 83.5 °F 85.1 °F 64.6 °F 53% 29.83 in 10.0 mi SSE 20.7 mph 31.1 mph N/A   Mostly Cloudy
3:15 PM 83.1 °F 84.6 °F 64.4 °F 53% 29.82 in 10.0 mi SSE 18.4 mph 27.6 mph N/A   Scattered Clouds
3:35 PM 82.8 °F 84.3 °F 64.8 °F 54% 29.81 in 10.0 mi SE 20.7 mph 29.9 mph N/A   Mostly Cloudy
3:55 PM 83.1 °F 84.6 °F 64.6 °F 53% 29.80 in 7.0 mi SSE 20.7 mph 29.9 mph N/A   Mostly Cloudy
4:15 PM 82.2 °F 83.8 °F 64.8 °F 55% 29.80 in 10.0 mi SSE 21.9 mph 27.6 mph N/A   Mostly Cloudy
4:55 PM 80.8 °F 82.8 °F 65.7 °F 60% 29.80 in 10.0 mi SSE 19.6 mph 27.6 mph N/A   Clear
5:35 PM 78.8 °F - 65.8 °F 64% 29.80 in 10.0 mi SSE 18.4 mph 28.8 mph N/A   Clear
5:55 PM 77.5 °F - 66.2 °F 68% 29.80 in 10.0 mi SSE 20.7 mph 27.6 mph N/A   Clear
6:15 PM 76.6 °F - 66.2 °F 70% 29.79 in 10.0 mi SSE 16.1 mph 28.8 mph N/A   Scattered Clouds
6:55 PM 75.4 °F - 66.4 °F 73% 29.79 in 10.0 mi SSE 19.6 mph 28.8 mph N/A   Mostly Cloudy
7:35 PM 74.8 °F - 66.9 °F 76% 29.79 in 10.0 mi SSE 17.3 mph 29.9 mph N/A   Overcast
7:55 PM 74.3 °F - 66.7 °F 77% 29.79 in 10.0 mi SSE 23.0 mph 28.8 mph N/A   Mostly Cloudy
8:15 PM 73.8 °F - 66.6 °F 78% 29.80 in 10.0 mi SSE 17.3 mph 24.2 mph N/A   Mostly Cloudy
8:35 PM 73.8 °F - 66.9 °F 79% 29.80 in 10.0 mi SSE 17.3 mph 26.5 mph N/A   Mostly Cloudy
8:55 PM 73.8 °F - 67.1 °F 80% 29.81 in 10.0 mi SSE 20.7 mph 27.6 mph N/A   Overcast
9:15 PM 73.8 °F - 67.1 °F 80% 29.81 in 10.0 mi SSE 20.7 mph 26.5 mph N/A   Overcast
9:35 PM 73.9 °F - 67.1 °F 79% 29.81 in 10.0 mi SSE 18.4 mph 28.8 mph N/A   Overcast
9:55 PM 73.9 °F - 67.1 °F 79% 29.81 in 10.0 mi SSE 19.6 mph 31.1 mph N/A   Mostly Cloudy
10:15 PM 73.6 °F - 67.1 °F 80% 29.81 in 10.0 mi South 19.6 mph 27.6 mph N/A   Mostly Cloudy
10:35 PM 73.6 °F - 67.1 °F 80% 29.82 in 10.0 mi South 17.3 mph 24.2 mph N/A   Mostly Cloudy
10:55 PM 73.4 °F - 67.1 °F 81% 29.81 in 10.0 mi South 19.6 mph 28.8 mph N/A   Mostly Cloudy
11:15 PM 73.4 °F - 67.1 °F 81% 29.80 in 10.0 mi South 18.4 mph 26.5 mph N/A   Mostly Cloudy
11:35 PM 73.4 °F - 67.1 °F 81% 29.80 in 10.0 mi South 18.4 mph 26.5 mph N/A   Scattered Clouds
11:55 PM 73.4 °F - 67.3 °F 81% 29.79 in 10.0 mi South 20.7 mph 31.1 mph N/A   Mostly Cloudy